Location: Alincthun
(50.7310°N, 1.8022°E)
Time: 05:06:28
(UTC+00:00)

BREEZE-M DEB (TANK) - Pass Details

Date: 17 February 2020
Orbit: 324 x 11711 km, 49.7° (Epoch: 28 March)

Event Time Altitude Azimuth Distance (km) Brightness Sun altitude
Exits shadow 05:04:02 34° 231° (SW) 1,141 4.5 -19.3°
Maximum altitude 05:05:52 68° 159° (SSE) 961 4.5 -19.0°
Drops below altitude 10° 05:16:50 10° 79° (E) 5,246 9.5 -17.3°
Sets 05:24:09 0° 79° (E) 7,986 10.9 -16.1°
